Weather in Shiquanhe

China     32°12′47″N   80°02′28″E
temp.,
°C
wind,
m/s
gust,
m/s
humid.,
%
clouds,
%
prec.,
mm/h
press.,
hPa
HPBL,
m
25 june, sat
sat2523:00+10sw33270 0.0 1005310
02:00+8sw33330 0.0 100848
05:00+6ssw32420 0.0 100925
08:00+4ssw32460 0.0 101228
11:00+8sw22300 0.0 10111434
14:00+13wsw35130 0.0 10062247
17:00+16wsw4680 0.0 10012321
20:00+15sw3570 0.0 10002096
26 june, sun
sun2623:00+12sw33170 0.0 100458
02:00+9ssw33250 0.0 100725
05:00+6ssw33400 0.0 100923
08:00+5ssw22490 0.0 101222
11:00+10wsw21310 0.0 10101144
14:00+15w34160 0.0 10042447
17:00+18wsw5590 0.0 10012662
20:00+17sw4590 0.0 10002277
27 june, mon
mon2723:00+13sw33150 0.0 100429
02:00+10sw322658 0.0 100819
05:00+8ssw22400 0.0 101015
08:00+6ssw22520 0.0 101217
11:00+12wnw11310 0.0 10091017
14:00+17wnw33143 0.0 10042635
17:00+20w34112 0.0 9993480
20:00+20sw25100 0.0 9973373
28 june, tue
tue2823:00+15wsw33190 0.0 100140
02:00+12sw22230 0.0 100416
05:00+10ssw323234 0.0 100615
08:00+8ssw224276 0.0 100817
11:00+14wnw11255 0.0 10051385
14:00+19wnw33166 0.0 10003422
17:00+21w431245 0.0 9943813
20:00+17w342078 0.0 996534
29 june, wed
wed2923:00+15nnw222512 0.0 99946
02:00+12nnw233795 0.1 100367
05:00+10ne445382 0.4 1007398
08:00+6nnw337192 0.9 1011315
11:00+11nnw334719 0.0 1008957
14:00+16nw542682 0.0 10012459
17:00+20nnw321998 0.0 9943537
20:00+20nne531546 0.0 9913241